Погода в Начале

Россия / Астраханская область     46°17′37″N   48°13′40″E
темп.,
°C
ветер,
м/с
пор.,
м/с
влажн.,
%
обл.,
%
осадки,
мм/ч
давл.,
гПа
погр.,
м
24 сентября, пт
пт2401:00+15с4782100 0.3 1011320
04:00+15с51082100 0.3 1009382
07:00+16ссв61078100 0.0 1007415
10:00+20с1149100 0.0 1006920
13:00+22сз6539100 0.0 10061323
16:00+19сз9105732 0.0 1008991
19:00+14сз7117339 0.0 1009567
22:00+13зсз61176100 0.0 1011601
25 сентября, сб
сб2501:00+12зсз61168100 0.0 1012487
04:00+10зсз37780 0.0 1012189
07:00+10зсз35800 0.0 1013100
10:00+17сз345397 0.0 1013760
13:00+20зсз3337100 0.0 10121360
16:00+20зсз3335100 0.0 10121432
19:00+17зсз3448100 0.0 101372
22:00+16зюз2251100 0.0 101422
26 сентября, вс
вс2601:00+14з51082100 0.3 1015502
04:00+14зюз5978100 0.3 1015436
07:00+12зюз49834 0.1 1015326
10:00+17з78555 0.1 1015896
13:00+19з894461 0.1 10151872
16:00+18з7945100 0.3 10141638
19:00+16з7114940 0.0 1014844
22:00+14зюз71271100 0.1 1013967
27 сентября, пн
пн2701:00+14зюз81483100 1.4 10101085
04:00+15зюз9147867 2.0 1009883
07:00+13з814750 0.4 1010729
10:00+15з9126010 0.4 10111242
13:00+18зсз911385 0.0 10112090
16:00+18зсз911359 0.0 10122350
19:00+14сз711455 0.0 1014701
22:00+12зсз48527 0.0 1015164
28 сентября, вт
вт2801:00+11зсз47635 0.0 1016150
04:00+10зсз48726 0.0 1017158
07:00+10зсз367465 0.0 1018122
10:00+14сз3461100 0.0 1019607
13:00+18зсз344725 0.0 10191486
16:00+17с3448100 0.1 1020844
19:00+15ссв585191 0.0 1022493
22:00+12ссв3755100 0.0 1024364